Главная страница
METAR-TAF:

METAR-TAF

Аэропорты :

College Park, Мэриленд, США

широта: 38-58-50N, долгота: 076-55-20W, высота над уровнем моря: 15 м

Текущие метеонаблюдения

Эта сводка был подготовлена 14 минут назад, в 02:42 UTC
Ветер 4 Узел от южный
Температура 15°C
Влажность 55%
Давление 1015 hPa
Видимость: 16.1 км
ясное небо

METAR: KCGS 200242Z AUTO 19004KT 10SM CLR 15/06 A2997 RMK AO1 T01460064

Время: 22:56 (02:56 UTC)


TAF: отсутствует

Метеонаблюдения и прогнозы для более 4000 аэропортов (сводки METAR и TAF).

Имеющиеся станции представлены на карте желтыми и красными точками.

Чтобы увидеть название станции, наведите на нее мышь.

Затем щелкните, чтобы увидеть метеонаблюдения и метеопрогнозы.

Управление картой: чтобы увеличить масштаб, щелкните зеленые кнопки с черным крестиком; чтобы уменьшить масштаб, щелкните зеленую кнопку с тире; для просмотра соседних карт щелкайте зеленые стрелки.


METAR-TAF: